| time (UTC) | temp F | wind direction | speed MPH | gust MPH | rain 1hr in | rain 24hr in | rain mn in | humidity % | barometer mb |
| 20260505055007 | 63 | 324 | 12.0 | 23.0 | 0.00 | 0.00 | 0.00 | 38 | 1002.0 |
| 20260505054000 | 64 | 331 | 8.0 | 21.0 | 0.00 | 0.00 | 0.00 | 37 | 1001.8 |
| 20260505053002 | 65 | 324 | 9.0 | 19.0 | 0.00 | 0.00 | 0.00 | 36 | 1001.5 |
| 20260505052007 | 67 | 354 | 7.0 | 21.0 | 0.00 | 0.00 | 0.00 | 36 | 1001.5 |
| 20260505051001 | 68 | 2 | 7.0 | 12.0 | 0.00 | 0.00 | 0.00 | 35 | 1001.4 |
| 20260505041005 | 71 | 352 | 4.0 | 12.0 | 0.00 | 0.00 | 0.00 | 39 | 1000.3 |
| 20260505040009 | 71 | 341 | 4.0 | 12.0 | 0.00 | 0.00 | 0.00 | 38 | 1000.3 |
| 20260505034957 | 72 | 350 | 6.0 | 13.0 | 0.00 | 0.00 | 0.00 | 39 | 1000.3 |
| 20260505034000 | 72 | 336 | 4.0 | 8.0 | 0.00 | 0.00 | 0.00 | 42 | 1000.0 |
| 20260505033005 | 71 | 316 | 6.0 | 12.0 | 0.00 | 0.00 | 0.00 | 48 | 1000.2 |
| 20260505030958 | 63 | 334 | 5.0 | 8.0 | 0.00 | 0.00 | 0.00 | 83 | 999.8 |
| 20260505030003 | 64 | 177 | 0.0 | 0.0 | 0.00 | 0.00 | 0.00 | 77 | 999.1 |
| 20260505025003 | 64 | 177 | 0.0 | 0.0 | 0.00 | 0.00 | 0.00 | 76 | 998.9 |
| 20260505024012 | 65 | 177 | 0.0 | 0.0 | 0.00 | 0.00 | 0.00 | 77 | 998.8 |
| 20260505023012 | 65 | 177 | 0.0 | 0.0 | 0.00 | 0.00 | 0.00 | 74 | 998.6 |
| 20260505021958 | 65 | 177 | 0.0 | 0.0 | 0.00 | 0.00 | 0.00 | 73 | 998.5 |
| 20260505021004 | 65 | 177 | 0.0 | 0.0 | 0.00 | 0.00 | 0.00 | 75 | 998.2 |
| 20260505015004 | 67 | 177 | 0.0 | 0.0 | 0.00 | 0.00 | 0.00 | 71 | 997.5 |
| 20260505014002 | 67 | 177 | 0.0 | 0.0 | 0.00 | 0.00 | 0.00 | 71 | 997.3 |
| 20260505012012 | 70 | 177 | 0.0 | 0.0 | 0.00 | 0.00 | 0.00 | 63 | 996.5 |
| 20260505011005 | 72 | 177 | 0.0 | 0.0 | 0.00 | 0.00 | 0.00 | 63 | 996.2 |
| 20260505005959 | 74 | 177 | 0.0 | 0.0 | 0.00 | 0.00 | 0.00 | 55 | 995.9 |
| 20260505005004 | 75 | 177 | 0.0 | 0.0 | 0.00 | 0.00 | 0.00 | 53 | 995.8 |
| 20260505004003 | 77 | 177 | 0.0 | 0.0 | 0.00 | 0.00 | 0.00 | 54 | 995.6 |
| 20260505002011 | 78 | 177 | 0.0 | 0.0 | 0.00 | 0.00 | 0.00 | 47 | 995.4 |
| 20260505001000 | 79 | 177 | 0.0 | 0.0 | 0.00 | 0.00 | 0.00 | 46 | 995.3 |
| 20260505000012 | 79 | 177 | 0.0 | 3.0 | 0.00 | 0.00 | 0.00 | 46 | 995.2 |
| 20260504235012 | 80 | 125 | 0.0 | 2.0 | 0.00 | 0.00 | 0.00 | 44 | 995.1 |
| 20260504233959 | 80 | 212 | 0.0 | 2.0 | 0.00 | 0.00 | 0.00 | 42 | 995.1 |
| 20260504233003 | 80 | 135 | 0.0 | 4.0 | 0.00 | 0.00 | 0.00 | 40 | 995.0 |
| 20260504232007 | 80 | 300 | 0.0 | 3.0 | 0.00 | 0.00 | 0.00 | 41 | 994.8 |
| 20260504230959 | 81 | 208 | 1.0 | 4.0 | 0.00 | 0.00 | 0.00 | 38 | 994.8 |
| 20260504230003 | 81 | 154 | 2.0 | 5.0 | 0.00 | 0.00 | 0.00 | 38 | 994.6 |
| 20260504225002 | 82 | 225 | 2.0 | 7.0 | 0.00 | 0.00 | 0.00 | 39 | 994.6 |
| 20260504223958 | 82 | 188 | 3.0 | 9.0 | 0.00 | 0.00 | 0.00 | 39 | 994.6 |
| 20260504222006 | 82 | 187 | 4.0 | 11.0 | 0.00 | 0.00 | 0.00 | 39 | 994.9 |
| 20260504221006 | 81 | 168 | 2.0 | 8.0 | 0.00 | 0.00 | 0.00 | 42 | 995.0 |
| 20260504215957 | 81 | 153 | 5.0 | 11.0 | 0.00 | 0.00 | 0.00 | 39 | 995.1 |
| 20260504214959 | 81 | 248 | 1.0 | 5.0 | 0.00 | 0.00 | 0.00 | 41 | 995.0 |
| 20260504214400 | 81 | 178 | 4.0 | 8.0 | 0.00 | 0.00 | 0.00 | 41 | 995.1 |
| 20260504214001 | 81 | 178 | 4.0 | 8.0 | 0.00 | 0.00 | 0.00 | 41 | 995.1 |
| 20260504212957 | 81 | 184 | 3.0 | 6.0 | 0.00 | 0.00 | 0.00 | 36 | 995.1 |
| 20260504212006 | 81 | 5 | 3.0 | 8.0 | 0.00 | 0.00 | 0.00 | 36 | 995.1 |
| 20260504211443 | 82 | 139 | 3.0 | 8.0 | 0.00 | 0.00 | 0.00 | 36 | 995.0 |
| 20260504211003 | 82 | 139 | 3.0 | 8.0 | 0.00 | 0.00 | 0.00 | 36 | 995.0 |
| 20260504210001 | 81 | 191 | 3.0 | 7.0 | 0.00 | 0.00 | 0.00 | 36 | 995.1 |
| 20260504205102 | 82 | 170 | 3.0 | 7.0 | 0.00 | 0.00 | 0.00 | 36 | 995.1 |
| 20260504205002 | 82 | 170 | 3.0 | 7.0 | 0.00 | 0.00 | 0.00 | 36 | 995.1 |
| 20260504203011 | 83 | 165 | 3.0 | 9.0 | 0.00 | 0.00 | 0.00 | 37 | 995.4 |
| 20260504201000 | 82 | 164 | 5.0 | 11.0 | 0.00 | 0.00 | 0.00 | 36 | 995.6 |
| 20260504195012 | 82 | 184 | 5.0 | 12.0 | 0.00 | 0.00 | 0.00 | 34 | 995.7 |
| 20260504193958 | 81 | 147 | 4.0 | 12.0 | 0.00 | 0.00 | 0.00 | 34 | 995.7 |
| 20260504192001 | 81 | 150 | 6.0 | 12.0 | 0.00 | 0.00 | 0.00 | 35 | 995.7 |
| 20260504190007 | 81 | 267 | 4.0 | 9.0 | 0.00 | 0.00 | 0.00 | 37 | 995.9 |
| 20260504184958 | 80 | 307 | 5.0 | 9.0 | 0.00 | 0.00 | 0.00 | 37 | 996.0 |
| 20260504184003 | 80 | 160 | 6.0 | 13.0 | 0.00 | 0.00 | 0.00 | 40 | 996.0 |
| 20260504183003 | 80 | 144 | 4.0 | 10.0 | 0.00 | 0.00 | 0.00 | 38 | 996.1 |
| 20260504182001 | 79 | 158 | 6.0 | 13.0 | 0.00 | 0.00 | 0.00 | 40 | 996.1 |
| 20260504181003 | 80 | 142 | 4.0 | 10.0 | 0.00 | 0.00 | 0.00 | 40 | 996.2 |
| 20260504175958 | 79 | 289 | 4.0 | 9.0 | 0.00 | 0.00 | 0.00 | 41 | 996.3 |
| 20260504175007 | 79 | 307 | 3.0 | 8.0 | 0.00 | 0.00 | 0.00 | 39 | 996.5 |
| 20260504174003 | 79 | 293 | 4.0 | 9.0 | 0.00 | 0.00 | 0.00 | 39 | 996.6 |
| 20260504173002 | 78 | 139 | 5.0 | 10.0 | 0.00 | 0.00 | 0.00 | 40 | 996.6 |
| 20260504172003 | 78 | 307 | 4.0 | 9.0 | 0.00 | 0.00 | 0.00 | 41 | 996.6 |
| 20260504171006 | 77 | 296 | 5.0 | 13.0 | 0.00 | 0.00 | 0.00 | 40 | 996.9 |
| 20260504150959 | 72 | 272 | 3.0 | 8.0 | 0.00 | 0.00 | 0.00 | 49 | 997.8 |
| 20260504141005 | 69 | 161 | 4.0 | 11.0 | 0.00 | 0.00 | 0.00 | 55 | 998.7 |
| 20260504082004 | 65 | 305 | 0.0 | 5.0 | 0.00 | 0.00 | 0.00 | 54 | 1001.2 |
| 20260504081012 | 66 | 302 | 0.0 | 4.0 | 0.00 | 0.00 | 0.00 | 53 | 1001.4 |